Location: Unspecified
(0.0000°N, 0.0000°E)
Time: 07:50:18
(UTC+00:00)

Vanguard 1 Rocket - All Passes

Search period start: 04 September 2015 00:00
Search period end: 14 September 2015 00:00
Orbit: 652 x 4226 km, 34.3° (Epoch: 02 September)

Date Brightness Start Highest point End Pass type
(mag) Time Alt. Az. Time Alt. Az. Time Alt. Az.
04 Sep - 00:15:03 10° WNW 00:28:19 78° SW 00:52:44 10° SE visible
04 Sep - 02:44:58 10° W 03:03:08 36° SSW 03:25:42 10° SE visible
04 Sep - 05:25:45 10° SW 05:43:44 21° S 05:59:07 10° SE visible
04 Sep - 08:06:47 10° SW 08:23:04 25° SSE 08:34:08 10° ESE daylight
04 Sep - 10:40:01 10° SW 10:55:23 56° SSE 11:03:12 10° ENE daylight
04 Sep - 13:13:21 10° WSW 13:21:31 30° NW 13:26:30 10° NNE daylight
04 Sep - 20:43:06 10° N 20:48:01 17° NE 20:55:47 10° ENE visible
04 Sep - 23:04:16 10° NW 23:15:02 75° NE 23:36:32 10° ESE visible
05 Sep - 01:31:06 10° W 01:46:48 48° SSW 02:10:48 10° SE visible
05 Sep - 04:06:52 10° WSW 04:25:27 25° SSW 04:43:57 10° SE visible
05 Sep - 06:49:37 10° SW 07:06:43 22° S 07:19:47 10° SE daylight
05 Sep - 09:25:02 10° SW 09:42:13 40° SSE 09:51:49 10° E daylight
05 Sep - 11:57:58 10° WSW 12:10:43 66° NW 12:17:13 10° NE daylight
05 Sep - 21:54:21 10° NNW 22:02:55 46° NE 22:19:29 10° ESE visible
06 Sep - 00:18:50 10° WNW 00:31:50 64° SSW 00:55:27 10° SE visible
06 Sep - 02:50:08 10° WSW 03:07:38 31° SSW 03:28:44 10° SE visible
06 Sep - 05:31:15 10° SW 05:49:00 21° S 06:04:18 10° SE visible
06 Sep - 08:09:29 10° SW 08:27:42 31° SSE 08:39:19 10° ESE daylight
06 Sep - 10:42:47 10° SW 10:59:07 75° SE 11:07:04 10° ENE daylight
06 Sep - 13:18:04 10° W 13:24:48 21° NW 13:29:11 10° N daylight
06 Sep - 20:45:27 10° N 20:51:25 23° NE 21:01:24 10° E visible
06 Sep - 23:07:44 10° NW 23:18:18 88° SW 23:39:36 10° SE visible
07 Sep - 01:35:38 10° W 01:50:56 39° SSW 02:13:27 10° SE visible
07 Sep - 04:12:45 10° SW 04:30:35 23° S 04:48:12 10° SE visible
07 Sep - 06:53:11 10° SW 07:11:41 25° SSE 07:25:24 10° ESE daylight
07 Sep - 09:27:32 10° SW 09:46:17 51° SSE 09:56:07 10° ENE daylight
07 Sep - 12:01:38 10° WSW 12:13:57 47° NW 12:20:28 10° NNE daylight
07 Sep - 21:57:32 10° NW 22:06:03 60° NE 22:23:14 10° ESE visible
08 Sep - 00:22:53 10° WNW 00:35:38 51° SSW 00:58:02 10° SE visible
08 Sep - 02:55:39 10° WSW 03:12:26 26° SSW 03:32:07 10° SE visible
08 Sep - 05:36:01 10° SW 05:54:15 23° S 06:09:54 10° SE visible
08 Sep - 08:12:04 10° SW 08:32:06 38° SSE 08:44:08 10° E daylight
08 Sep - 10:45:47 10° SW 11:02:35 83° NW 11:10:42 10° NE daylight
08 Sep - 13:23:44 10° WNW 13:28:11 14° NW 13:31:15 10° NNW daylight
08 Sep - 20:48:11 10° NNW 20:54:40 32° NE 21:06:13 10° ESE visible
08 Sep - 23:11:24 10° WNW 23:21:46 71° SSW 23:42:25 10° SE visible
09 Sep - 01:40:32 10° WSW 01:55:21 32° SSW 02:16:14 10° SE visible
09 Sep - 04:18:25 10° SW 04:35:51 22° S 04:53:08 10° SE visible
09 Sep - 06:56:17 10° SW 07:16:26 30° SSE 07:30:45 10° ESE daylight
09 Sep - 09:30:09 10° SW 09:50:05 66° SSE 10:00:06 10° ENE daylight
09 Sep - 12:05:44 10° WSW 12:17:08 34° NW 12:23:30 10° NNE daylight
09 Sep - 19:40:43 10° NNE 19:43:31 13° NE 19:47:36 10° ENE visible
09 Sep - 22:00:53 10° NW 22:09:16 78° NE 22:26:35 10° SE visible
10 Sep - 00:27:14 10° W 00:39:41 41° SSW 01:00:34 10° SE visible
10 Sep - 03:01:21 10° SW 03:17:28 23° S 03:36:00 10° SE visible
10 Sep - 05:40:05 10° SW 05:59:20 25° SSE 06:15:37 10° ESE visible
10 Sep - 08:14:35 10° SW 08:36:14 48° SSE 08:48:35 10° E daylight
10 Sep - 10:49:04 10° WSW 11:05:50 64° NW 11:14:07 10° NE daylight
10 Sep - 20:51:11 10° NNW 20:57:51 44° NE 21:10:26 10° ESE visible
10 Sep - 23:15:19 10° WNW 23:25:29 56° SSW 23:45:04 10° SE visible
11 Sep - 01:45:47 10° WSW 02:00:02 27° SSW 02:19:15 10° SE visible
11 Sep - 04:23:32 10° SW 04:41:09 22° S 04:58:39 10° SE visible
11 Sep - 06:59:05 10° SW 07:20:56 37° SSE 07:35:45 10° E daylight
11 Sep - 09:32:55 10° SW 09:53:37 83° SE 10:03:51 10° ENE daylight
11 Sep - 12:10:24 10° W 12:20:22 24° NW 12:26:17 10° N daylight
11 Sep - 19:42:35 10° N 19:46:56 19° NE 19:53:34 10° E visible
11 Sep - 22:04:26 10° WNW 22:12:40 81° SW 22:29:38 10° SE visible
12 Sep - 00:31:55 10° W 00:44:00 33° SSW 01:03:08 10° SE visible
12 Sep - 03:07:02 10° SW 03:22:41 22° S 03:40:34 10° SE visible
12 Sep - 05:43:33 10° SW 06:04:12 29° SSE 06:21:11 10° ESE daylight
12 Sep - 08:17:09 10° SW 08:40:06 60° SSE 08:52:41 10° ENE daylight
12 Sep - 10:52:43 10° WSW 11:09:00 49° NW 11:17:19 10° NNE daylight
12 Sep - 20:54:22 10° NW 21:01:03 61° NE 21:14:11 10° ESE visible
12 Sep - 23:19:31 10° W 23:29:28 43° SSW 23:47:35 10° SE visible
13 Sep - 01:51:20 10° SW 02:04:57 23° S 02:22:40 10° SE visible
13 Sep - 04:27:58 10° SW 04:46:19 24° S 05:04:29 10° ESE visible
13 Sep - 07:01:44 10° SW 07:25:09 45° SSE 07:40:21 10° E daylight
13 Sep - 09:35:55 10° SW 09:56:56 79° NW 10:07:21 10° NE daylight
13 Sep - 12:15:50 10° W 12:23:43 18° NW 12:28:43 10° N daylight
13 Sep - 19:45:11 10° NNW 19:50:12 28° NE 19:58:26 10° E visible
13 Sep - 22:08:13 10° WNW 22:16:17 61° SSW 22:32:26 10° SE night (unlit)
